Content
SEND FEEDBACK

Daily
Averages
Monthly
Summary
United States of America

ST. LOUIS, MISSOURI


Home > North America > United States > Missouri
Elevation: 163 meters     Latitude: 38 45N     Longitude: 090 22W

WEATHER
 
SELECT A DAY
Number of Records: 198,984;   Date Range: 1/1/95 - 9/30/14
 
SHARE

PRINT THIS DATA

[ ← Previous Day ]
WEATHER ALMANAC - 4 FEBRUARY, 2013
[ Next Day → ]
[ °F ]   °C
Weather ElementAverageHighLow
Temperature4.7 °C13.9 °C (12:54 pm)-3.9 °C (1:54 am)
Dewpoint-2.7 °C0.6 °C (12:54 pm)-7.8 °C (1:54 am)
Humidity60.4 %75 % (1:54 am)40 % (12:54 pm)
Barometer1011.9 hPa1015.9 hPa (8:54 pm)1009.5 hPa (12:54 pm)
Wind Speed12.9 km/h25.9 km/h (12:54 pm)
Wind Gust37 km/h (12:54 pm)
Weather ElementAverage
Visibility16.1 km
Wind DirectionSSW (215 °)

Weather ElementTotal
Precipitation---
Heating Degree Days13.3 (Base 18.3)
Averaged from 20 records on 4 February, 2013
WEATHER CONDITIONS BREAKOUT
WIND DIRECTION BREAKOUT
WEATHER BY HOUR - 4 FEBRUARY, 2013
[ °F ]   °C
Local TimeTemperatureDewpointHumidityBarometerVisibilityWind DirectionWind SpeedGust SpeedPrecipitationEventsConditions
1:54 AM-3.9 °C-7.8 °C75 %1014.9 hPa16.1 kmENE (70°)7.4 km/hClear
2:54 AM-1.1 °C-6.1 °C69 %1013.9 hPa16.1 kmENE (70°)11.1 km/hOvercast
4:54 AM-0.6 °C-5 °C72 %1011.9 hPa16.1 kmEast (80°)7.4 km/hOvercast
5:54 AM0 °C-4.4 °C73 %1011.2 hPa16.1 kmCalmOvercast
6:54 AM2.2 °C-5 °C59 %1010.5 hPa16.1 kmEast (80°)5.6 km/hOvercast
7:54 AM1.7 °C-3.9 °C67 %1011.2 hPa16.1 kmSouth (180°)7.4 km/hOvercast
8:54 AM2.8 °C-2.8 °C67 %1011.2 hPa16.1 kmCalmMostly Cloudy
9:54 AM3.9 °C-1.7 °C67 %1011.2 hPa16.1 kmCalmMostly Cloudy
10:54 AM10 °C-2.2 °C43 %1010.5 hPa16.1 kmSW (230°)16.7 km/hScattered Clouds
11:54 AM12.2 °C-0.6 °C41 %1009.8 hPa16.1 kmWest (260°)22.2 km/hPartly Cloudy
12:54 PM13.9 °C0.6 °C40 %1009.5 hPa16.1 kmWest (260°)25.9 km/h37 km/hPartly Cloudy
1:54 PM13.3 °C0.6 °C42 %1009.5 hPa16.1 kmNNW (330°)20.4 km/hPartly Cloudy
2:54 PM11.1 °C0 °C47 %1009.8 hPa16.1 kmNW (320°)22.2 km/hPartly Cloudy
3:54 PM10 °C-0.6 °C48 %1010.5 hPa16.1 kmNNW (340°)20.4 km/h35.2 km/hPartly Cloudy
4:54 PM7.8 °C0 °C58 %1011.5 hPa16.1 kmNorth (350°)16.7 km/hClear
5:54 PM5 °C-1.7 °C62 %1012.9 hPa16.1 kmNNW (340°)16.7 km/h33.3 km/hClear
6:54 PM3.3 °C-2.8 °C65 %1013.5 hPa16.1 kmNNW (340°)14.8 km/hClear
7:54 PM1.7 °C-3.3 °C70 %1014.9 hPa16.1 kmNorth (360°)14.8 km/hClear
8:54 PM0.6 °C-3.9 °C72 %1015.9 hPa16.1 kmNNW (340°)13 km/hScattered Clouds
9:07 PM1 °C-4 °C70 %1015.6 hPa16.1 kmNorth (350°)14.8 km/hMostly Cloudy
Hourly data recorded from KSUS, located 0 kilometers away from St. Louis, Missouri







STORIES FROM OUR PARTNERS